Regional Weather Roundup
Issued by NWS

Home | Current Version | Previous Version | Graphics & Text | Print | Product List | Glossary On
Versions: 1 2 3 4 5 6 7 8 9 10 11 12 13 14 15 16 17 18 19 20 21 22 23 24 25 26 27 28 29 30 31 32 33 34 35 36 37 38 39 40 41 42 43 44 45 46 47 48 49 50
000
ASUS45 KCYS 240510
RWRWY

WYOMING REGIONAL WEATHER ROUNDUP
NATIONAL WEATHER SERVICE CHEYENNE WY
1100 PM MDT SAT SEP 23 2017

NOTE:  "FAIR" INDICATES FEW OR NO CLOUDS BELOW 12,000 FEET
WITH NO SIGNIFICANT WEATHER AND/OR OBSTRUCTIONS TO VISIBILITY.

WYZ001-240600-
YELLOWSTONE NATIONAL PARK

CITY           SKY/WX    TMP DP  RH WIND       PRES   REMARKS
LK YELLOWSTONE NOT AVBL
W YELLOWSTONE  NOT AVBL

$$
WYZ002>013-054>058-071-098>099-240600-
NORTHERN WYOMING

CITY           SKY/WX    TMP DP  RH WIND       PRES   REMARKS
JACKSON        MOCLDY    41  33  73 NE7       29.98F
CODY           CLOUDY    39  34  82 NW3       30.10S
GREYBULL       CLOUDY    43  40  89 NW12      30.04R
WORLAND        CLOUDY    42  40  92 NW6       30.06S
SHERIDAN       LGT RAIN  40  40 100 W3        30.10S
BUFFALO        LGT RAIN  38  35  89 N8        30.09R WCI  32
GILLETTE       CLOUDY    41  41 100 N14       30.04F FOG
HULETT         DRIZZLE   41  41 100 NE7       30.04R
NEWCASTLE      LGT RAIN  43  43 100 SW8       30.00F

$$
WYZ014>020-022>026-101>103-240600-
CENTRAL WYOMING

CITY           SKY/WX    TMP DP  RH WIND       PRES   REMARKS
BIG PINEY      MOCLDY    37  35  92 NW9       29.95F WCI  30
PINEDALE       MOCLDY    36  36 100 W6        29.97R WCI  31
DUBOIS         CLOUDY    34  32  93 SE9       30.02S WCI  26
LANDER         LGT RAIN  38  37  97 NW5       30.04R WCI  34
RIVERTON       LGT RAIN  39  37  92 NE8       30.04S WCI  33
CASPER         CLOUDY    38  36  92 N15       30.01F WCI  29
DOUGLAS        CLOUDY    42  40  92 N10       29.99S FOG

$$
WYZ021-027>030-104>119-240600-
SOUTHERN WYOMING

CITY           SKY/WX    TMP DP  RH WIND       PRES   REMARKS
EVANSTON       LGT SNOW  33  33 100 NW3       29.96S FOG
KEMMERER       LGT RAIN  37  36  93 NE8       29.95S WCI  31
FORT BRIDGER   CLOUDY    37  37 100 W8        29.98R THUNDER WCI  31
ROCK SPRINGS   MOCLDY    36  33  89 NE22      29.96S WCI  25
DIXON          FAIR      41  35  80 NE7       29.93S
RAWLINS        CLOUDY    40  36  86 N10       29.96S WCI  33
SARATOGA       FAIR      37  37 100 N7        29.96R WCI  32
LARAMIE        FAIR      40  37  89 SE17      29.98R WCI  31
CHEYENNE       CLOUDY    42  40  92 VRB5      29.99R
TORRINGTON     LGT RAIN  44  43  96 E14       29.94F
PINE BLUFFS    LGT RAIN  43  43 100 MISG      29.98R

$$



USA.gov is the U.S. government's official web portal to all federal, state and local government web resources and services.